Flag for Egypt Weather past 2 weeks in Alexandria, Egypt

Now
52 °F

Clear.


Feels Like: 52 °F
Forecast: 56 / 65 °F
Wind: 1 mph from Southeast

Location: Alexandria / Nouzha

Current Time: Mar 3, 2015 at 6:43:10 AM

Latest Report: Mar 3, 2015 at 5:00 AM


Visibility: 10 mi

Pressure: 30.09 "Hg

Humidity: 88%

Dew point: 48 °F

Location of AlexandriaLocation

Historic Weather in Alexandria — Graph

°F

Alexandria temperature yesterday

Maximum temperature yesterday: 70 °F (at 1:00 PM)
Minimum temperature yesterday: 46 °F (at 7:00 AM)
Average temperature yesterday: 59 °F

Past Weeks' High & Low Weather Summary

 TemperatureHumidityPressure
High81 °F (Feb 27, 2:00 PM)100% (Feb 16, 8:00 AM)30.15 "Hg (Feb 16, 8:00 AM)
Low43 °F (Feb 16, 7:00 AM)20% (Feb 27, 4:00 PM)29.80 "Hg (Feb 24, 12:00 PM)
Average57 °F70%30.02 "Hg
* Reported Feb 16 4:00 AM — Mar 3 4:00 AM, Alexandria, Weather by CustomWeather, © 2015

Note: Actual official high and low records may vary slightly from our data, if they occured in-between our weather recording intervals... More about our weather records

Advertising

Alexandria weather history for previous 24 hours

 ConditionsComfort  
Time TempWeatherWind HumidityBarometerVisibility
4:00 AM
Tue, Mar 3
54 °FClear.2 mph88%30.09 "Hg10 mi
3:00 AM55 °FClear.No wind77%30.09 "Hg10 mi
2:00 AM54 °FClear.2 mph82%30.09 "Hg10 mi
1:00 AM54 °FClear.2 mph82%30.09 "Hg10 mi
12:00 AM54 °FClear.No wind77%30.09 "Hg10 mi
11:00 PM
Mon, Mar 2
55 °FClear.No wind77%30.12 "Hg10 mi
10:00 PM57 °FClear.1 mph72%30.12 "Hg10 mi
9:00 PM59 °FClear.3 mph72%30.09 "Hg10 mi
8:00 PM59 °FClear.2 mph72%30.09 "Hg10 mi
7:00 PM63 °FClear.2 mph59%30.09 "Hg10 mi
6:00 PM64 °FClear.2 mph40%30.09 "Hg10 mi
5:00 PM66 °FSunny.5 mph43%30.09 "Hg10 mi
4:00 PM68 °FSunny.5 mph33%30.09 "Hg10 mi
3:00 PM68 °FSunny.6 mph38%30.09 "Hg10 mi
2:00 PM70 °FSunny.3 mph29%30.09 "Hg10 mi
1:00 PM70 °FSunny.2 mph35%30.12 "Hg10 mi
12:00 PM68 °FSunny.3 mph43%30.12 "Hg10 mi
11:00 AM66 °FSunny.3 mph52%30.15 "Hg10 mi
10:00 AM63 °FSunny.5 mph68%30.15 "Hg10 mi
9:00 AM59 °FClear.2 mph77%30.12 "Hg4 mi
8:00 AM52 °FFog.No wind94%30.12 "Hg2 mi
7:00 AM46 °FFog.No wind93%30.09 "Hg1 mi
6:00 AM50 °FFog.No wind94%30.07 "Hg2 mi
Weather by CustomWeather, © 2015

See weather overviewHow to use our weather pages